Satellite-Ground Cal/Val Site Overpasses Predictions

Prediction of Satellite NPP Overpassing Cal/Val Site: Antarctic Dome C

Ground Cal/Val Site Location: Latitude: -75.10, Longitude: 123.35; Satellite-Ground Site NADIR distance within 100 km.

Table of predicted overpasses for the next 14.0 days since TLE Epoch: 4/15/2023
Interval Starting Time Ending Time Minimum Distance Time Minimum Distance (km)
1 04/15/2023 14:51:03 04/15/2023 14:51:32 04/15/2023 14:51:17 19.44
2 04/17/2023 07:33:51 04/17/2023 07:34:20 04/17/2023 07:34:05 2.55
3 04/20/2023 14:57:14 04/20/2023 14:57:43 04/20/2023 14:57:28 17.16
4 04/21/2023 14:38:33 04/21/2023 14:38:45 04/21/2023 14:38:39 89.96
5 04/22/2023 07:40:03 04/22/2023 07:40:31 04/22/2023 07:40:17 37.75
6 04/23/2023 07:21:16 04/23/2023 07:21:36 04/23/2023 07:21:26 72.39
7 04/25/2023 15:03:28 04/25/2023 15:03:52 04/25/2023 15:03:40 53.88
8 04/26/2023 14:44:38 04/26/2023 14:45:02 04/26/2023 14:44:50 55.24
9 04/27/2023 07:46:17 04/27/2023 07:46:37 04/27/2023 07:46:27 72.85
